Wetbulb
22.53 21.79 20.32 19.40 18.89 18.74 17.50 16.18 16.43 16.80 17.26 18.74 20.77 21.78 22.50 23.60 25.35 27.61 29.38 30.38 30.30 31.02 31.51 32.39 33.46 34.56 33.60 34.48 35.46 37.13 38.71 38.43 35.54 34.90 36.54 36.96 37.24 37.29 36.06 36.38 35.78 35.25 34.51
20.48 19.23 17.66 17.18 16.86 15.23 14.13 14.04 14.70 14.28 15.87 17.65 19.56 20.77 21.77 22.95 24.40 27.32 27.96 28.96 29.37 29.97 30.27 30.99 32.03 33.67 33.01 33.65 34.05 35.26 35.78 36.57 35.58 32.26 33.13 32.93 33.46 34.21 35.36 34.89 35.28 34.76 32.94
17.86 15.97 15.46 14.79 14.13 12.63 11.39 11.81 12.39 12.71 14.28 16.93 18.42 19.19 20.50 21.85 23.92 27.73 27.90 27.09 29.39 30.16 30.25 29.57 31.14 32.09 31.47 32.46 33.11 33.57 34.63 35.70 35.29 32.23 31.83 32.19 31.85 31.88 31.82 31.89 31.90 31.93 34.32
15.75 13.29 12.48 12.07 11.28 10.16 8.99 6.86 7.54 10.52 13.57 15.18 16.83 18.42 19.40 21.29 26.71 26.19 26.89 26.28 28.85 29.78 30.57 30.29 30.17 30.84 30.81 31.98 32.48 32.49 33.98 32.71 32.33 32.01 31.90 31.66 31.75 31.41 31.85 31.19 30.63 31.75 31.73
12.35 8.78 4.81 9.05 8.01 5.08 2.08 1.81 4.18 6.81 9.98 10.92 14.56 16.25 17.57 22.14 25.73 26.86 27.01 26.36 28.36 28.50 29.73 30.55 30.65 30.75 32.32 33.89 32.57 31.97 32.29 32.00 31.87 31.91 31.76 31.77 31.32 30.77 31.05 31.60 31.19 31.25 30.10
6.17 -1.34 -0.72 -0.26 1.53 0.50 -1.54 0.08 1.81 4.36 6.95 9.07 10.77 14.45 16.46 20.85 26.57 28.10 27.14 26.01 26.87 27.15 27.70 29.37 30.37 30.28 31.42 33.21 34.79 35.29 33.92 31.47 31.40 31.69 31.77 31.59 31.19 31.54 31.75 31.66 30.77 29.79 27.45
1.46 -3.05 -4.00 -5.59 -3.74 -2.56 -0.88 -0.46 2.78 4.50 6.59 7.03 9.21 13.95 14.77 17.91 25.73 27.08 26.49 25.42 25.43 25.50 26.96 27.63 28.02 28.76 30.28 31.47 33.15 34.47 33.14 34.84 34.46 32.27 31.10 30.72 31.05 31.52 31.71 31.23 30.75 30.09 28.91
-2.22 -3.94 -4.58 -5.39 -4.62 -1.41 -1.96 0.23 1.43 3.41 3.85 11.03 10.47 11.64 14.11 17.00 25.08 26.71 25.58 23.64 23.84 24.26 25.98 26.67 26.13 26.88 29.22 31.13 31.38 31.80 31.98 31.66 31.79 32.06 31.77 31.63 31.73 31.80 31.87 31.77 31.13 29.22 29.15
-3.54 -3.66 -4.18 -3.87 -3.82 -5.14 -0.85 -0.01 1.70 6.42 10.42 9.43 13.81 12.25 13.86 14.00 23.63 25.43 24.55 21.80 22.79 21.52 23.79 25.61 24.70 25.95 29.92 32.42 30.98 31.18 31.97 31.37 33.55 34.68 34.73 34.64 34.85 34.22 33.50 31.04 29.60 29.13 27.07
-1.17 -0.88 -2.34 -1.90 -1.56 -3.11 -1.06 1.90 2.68 6.19 13.19 14.42 14.64 13.36 13.11 13.80 20.52 23.77 23.84 21.47 20.31 19.84 20.38 22.20 24.50 26.23 29.63 31.97 30.76 31.09 30.31 30.00 30.45 30.40 30.27 30.39 30.67 30.29 31.06 29.47 29.45 28.37 27.53
4.71 3.50 0.98 1.61 3.67 4.38 6.45 8.45 9.00 9.49 10.92 8.06 12.07 13.09 12.81 13.63 15.59 22.64 23.25 20.38 19.78 18.67 18.31 18.97 21.50 25.82 29.01 31.43 32.70 32.13 32.05 31.86 31.58 30.24 29.21 28.50 28.46 27.92 27.89 27.27 27.03 27.03 26.84
7.06 6.97 5.24 4.81 10.27 10.84 9.09 11.06 11.00 11.48 11.31 10.27 10.72 11.28 13.10 13.81 17.80 21.14 22.36 22.30 21.99 18.76 17.11 18.84 19.65 25.14 28.26 30.57 31.02 33.22 33.37 32.13 31.50 28.91 26.83 25.91 26.02 26.43 26.39 24.97 23.66 23.35 23.69
6.39 3.59 3.15 7.01 11.30 11.47 10.10 10.44 10.44 10.73 10.71 10.65 11.29 10.10 10.87 13.02 14.35 20.50 21.10 21.28 20.68 19.28 18.77 19.85 21.22 24.89 27.09 27.91 29.95 31.28 29.55 30.66 29.42 26.53 25.53 25.25 25.55 26.70 27.59 26.50 26.10 24.97 23.66
2.61 4.36 6.06 6.77 7.98 9.01 11.67 11.71 9.82 8.06 8.75 10.84 11.12 10.77 10.86 11.71 15.11 17.86 18.62 17.38 18.38 17.79 16.63 14.79 19.36 21.45 23.64 24.03 24.73 27.94 28.23 28.29 28.68 27.73 25.42 25.33 26.13 25.82 26.40 26.62 26.66 26.67 22.72
3.46 6.49 8.48 7.66 5.70 7.47 10.23 8.88 10.88 10.80 12.37 7.77 6.72 10.84 11.27 11.37 17.33 20.48 18.92 15.00 15.89 16.61 9.83 6.73 11.32 13.24 14.77 16.45 18.19 20.88 25.84 27.10 27.13 28.04 27.58 26.07 25.92 24.64 24.89 26.35 26.79 26.65 23.85
4.82 6.00 5.76 6.42 4.81 6.54 5.74 5.15 14.08 15.76 17.29 17.63 18.29 16.15 14.90 18.11 21.24 20.78 19.20 16.58 17.28 15.22 -0.79 3.28 6.32 8.23 9.00 11.04 12.46 15.15 19.40 22.92 25.21 27.47 27.35 26.25 24.22 23.76 24.12 25.79 26.46 25.52 24.18
4.14 4.55 3.50 4.89 3.42 1.69 1.99 1.85 -1.22 6.00 13.49 14.74 16.14 16.99 17.85 17.60 19.48 19.31 18.01 14.95 14.22 8.93 -2.92 1.89 2.98 4.36 5.36 7.93 10.03 12.52 13.85 17.88 23.14 24.77 26.99 26.68 25.99 23.59 23.67 24.44 25.22 24.78 23.93
-0.31 2.49 2.79 1.91 1.49 -1.06 -0.29 -0.40 -1.53 -2.65 -3.65 0.43 8.82 13.75 14.98 16.48 17.60 17.09 16.29 9.29 -0.67 0.90 -7.22 0.79 1.96 2.63 3.22 4.44 7.75 10.17 12.41 15.52 18.91 22.91 26.00 26.98 26.23 25.63 23.82 23.12 23.80 23.82 23.57
1.39 1.38 -0.37 -2.10 -1.62 -1.37 -2.94 -2.24 -3.26 -4.50 -5.86 -7.42 -5.83 4.93 5.06 13.43 15.03 13.38 12.92 -6.61 -8.94 -5.46 -6.97 -4.85 -0.23 1.08 1.87 3.48 6.44 8.09 10.09 12.84 15.56 19.19 21.00 24.61 26.25 25.51 23.80 22.37 21.76 21.48 23.75
-4.58 -0.80 -1.64 -1.87 -4.95 -5.36 -4.98 -7.24 -7.72 -9.02 -10.99 -12.14 -10.57 -7.83 -4.37 -5.05 -6.87 -7.33 -7.53 -9.65 -9.80 -7.97 -5.95 -7.48 -6.46 -6.70 -4.03 0.07 3.44 4.78 6.85 9.90 12.19 13.69 15.59 17.91 20.64 25.94 24.54 24.30 22.68 21.80 22.12
-0.67 -3.50 -3.62 -5.41 -5.68 -9.98 -10.04 -9.63 -10.70 -13.46 -12.79 -13.91 -9.88 -6.75 12.74 -5.36 -10.85 -12.57 -12.72 -11.21 -8.82 -6.28 -5.32 -5.99 -6.82 -9.54 -12.97 -7.87 -3.10 1.53 3.76 6.30 8.83 10.29 11.32 14.28 16.74 19.39 25.28 23.23 22.90 21.93 18.20
0.04 -1.71 -5.54 -4.12 -6.02 -10.94 -12.03 -11.81 -12.84 -13.30 -14.66 -15.00 -9.49 -11.09 10.21 -8.02 -10.97 -12.04 -12.39 -12.46 -11.48 -10.97 -10.34 -12.10 -7.22 -8.16 -11.45 -12.81 -8.85 -5.48 -3.16 -0.82 4.75 7.64 8.13 10.01 13.43 16.42 18.77 23.20 20.70 19.13 17.44
1.04 -1.63 -4.05 -7.47 -7.22 -9.57 -13.48 -16.49 -14.98 -16.20 -15.49 -15.83 -15.15 -10.85 -14.80 -14.22 -14.44 -13.93 -11.17 -11.46 -13.60 -12.03 -12.48 -13.44 -9.65 -6.17 -6.95 -10.52 -14.18 -12.15 -10.27 -4.53 -1.04 3.83 4.78 5.85 9.21 12.93 16.29 21.28 19.58 19.78 18.92
0.51 0.13 -0.67 -3.37 -10.50 -10.38 -9.48 -10.67 -12.77 -11.56 -12.85 -12.30 -15.49 -14.24 -12.32 -14.40 -13.20 -11.54 -11.27 -12.19 -12.48 -12.37 -14.89 -14.42 -13.60 -8.96 -6.95 -7.58 -8.58 -13.31 -14.62 -10.52 -9.40 -4.35 -1.80 2.87 7.03 11.27 13.54 17.28 20.94 18.42 17.62
-1.54 -3.81 -3.57 -6.14 -8.02 -7.41 -11.09 -11.59 -11.60 -13.62 -13.78 -12.95 -11.51 -16.21 -14.71 -15.18 -14.76 -13.98 -13.86 -16.05 -15.53 -15.49 -10.19 -12.06 -12.17 -10.99 -8.31 -5.74 -5.23 -4.58 -5.79 -3.81 -7.71 -5.04 -5.45 2.40 4.07 8.70 13.18 15.47 18.02 15.79 16.74
-3.11 -3.57 -3.91 -9.52 -10.42 -11.14 -10.94 -10.65 -10.59 -11.34 -11.20 -10.48 -11.06 -12.07 -12.36 -10.72 -10.33 -14.20 -15.54 -16.11 -14.78 -13.71 -11.66 -14.12 -12.45 -7.35 -5.92 -7.15 -4.39 1.34 2.44 9.09 6.35 0.53 -6.41 -5.90 0.16 9.30 12.34 14.34 15.50 16.14 15.24
MSLP
1032.20 1032.16 1032.37 1032.43 1032.37 1032.29 1032.08 1031.95 1031.57 1031.12 1030.53 1029.73 1028.68 1027.87 1026.98 1026.14 1025.31 1024.49 1023.66 1022.85 1022.03 1021.19 1020.57 1019.85 1019.20 1018.53 1017.66 1016.93 1016.35 1015.55 1015.03 1015.05 1015.34 1015.20 1015.23 1015.50 1015.67 1015.78 1016.19 1016.47 1016.86 1017.19 1017.13
1032.70 1032.47 1032.87 1033.04 1032.89 1032.94 1032.77 1032.38 1032.05 1031.54 1030.91 1030.05 1029.09 1028.21 1027.37 1026.59 1025.75 1024.85 1024.08 1023.39 1022.60 1021.81 1021.06 1020.39 1019.57 1018.79 1018.02 1017.56 1016.82 1016.36 1015.83 1015.36 1014.97 1015.17 1015.70 1015.86 1015.81 1016.24 1016.46 1016.79 1017.11 1017.41 1017.56
1032.97 1032.99 1033.38 1033.60 1033.55 1033.56 1033.55 1033.00 1032.54 1032.03 1031.32 1030.38 1029.41 1028.55 1027.78 1026.95 1025.95 1025.13 1024.53 1023.94 1023.18 1022.49 1021.76 1021.09 1020.28 1019.53 1018.64 1017.74 1016.94 1016.36 1015.67 1015.49 1015.42 1015.75 1016.29 1016.06 1016.16 1016.33 1016.62 1016.99 1017.15 1017.80 1017.60
1033.44 1033.53 1033.99 1034.12 1034.16 1034.19 1033.94 1033.66 1033.16 1032.34 1031.41 1030.75 1029.90 1029.08 1028.29 1027.24 1026.01 1025.31 1024.60 1024.20 1023.55 1023.00 1022.29 1021.63 1020.94 1020.35 1019.52 1018.43 1017.67 1016.91 1016.24 1016.04 1015.80 1015.94 1015.83 1016.02 1015.98 1016.36 1016.61 1016.71 1017.41 1017.75 1017.72
1034.02 1034.25 1034.91 1034.83 1034.66 1034.74 1034.52 1034.08 1033.46 1032.63 1031.75 1031.24 1030.32 1029.50 1028.67 1027.30 1026.19 1025.41 1024.91 1024.43 1023.82 1023.27 1022.76 1022.08 1021.51 1020.88 1020.10 1019.04 1018.31 1017.56 1016.92 1016.32 1015.96 1015.94 1015.80 1015.89 1016.14 1016.34 1016.64 1016.79 1017.47 1017.64 1017.96
1034.56 1034.96 1035.39 1035.40 1035.21 1035.09 1034.85 1034.39 1033.74 1032.83 1031.97 1031.41 1030.69 1030.01 1029.09 1028.04 1026.69 1025.84 1025.17 1024.81 1024.30 1023.83 1023.23 1022.49 1021.84 1021.12 1020.16 1019.45 1018.70 1018.11 1017.56 1016.86 1016.25 1016.16 1016.13 1016.11 1016.20 1016.32 1016.77 1017.03 1017.29 1017.58 1017.88
1035.01 1035.44 1035.80 1035.81 1035.44 1035.34 1034.92 1034.51 1033.81 1032.88 1032.28 1031.64 1030.95 1030.35 1029.61 1028.73 1027.10 1026.30 1025.81 1025.53 1024.97 1024.47 1023.84 1023.17 1022.37 1021.80 1020.89 1019.67 1019.11 1018.45 1018.11 1017.54 1017.14 1016.65 1016.71 1016.59 1016.70 1016.66 1016.93 1017.18 1017.26 1017.42 1017.86
1035.32 1035.74 1036.05 1035.89 1035.68 1035.34 1035.09 1034.55 1033.85 1033.03 1032.30 1031.83 1031.15 1030.62 1029.98 1029.05 1027.48 1026.66 1026.31 1026.14 1025.60 1025.05 1024.45 1023.88 1023.28 1022.31 1021.29 1020.29 1019.65 1018.90 1018.41 1018.09 1017.73 1017.52 1017.28 1017.14 1017.25 1017.28 1017.19 1017.21 1017.51 1017.93 1018.40
1035.62 1035.80 1035.92 1035.81 1035.62 1035.24 1034.79 1034.48 1033.82 1033.23 1032.55 1031.94 1031.44 1031.00 1030.42 1029.74 1028.14 1027.15 1026.83 1026.48 1026.00 1025.63 1025.05 1024.49 1024.05 1022.99 1021.81 1020.68 1020.03 1019.35 1018.93 1018.77 1018.54 1018.11 1017.97 1017.97 1017.72 1017.54 1017.53 1017.62 1017.88 1018.11 1018.46
1035.12 1035.23 1035.45 1035.34 1035.09 1035.00 1034.90 1034.48 1034.10 1033.47 1032.95 1032.35 1031.80 1031.44 1030.94 1030.34 1029.00 1027.82 1027.29 1027.04 1026.43 1025.97 1025.58 1025.02 1024.31 1023.40 1022.09 1021.21 1020.62 1019.87 1019.49 1019.39 1019.14 1019.02 1018.75 1018.62 1018.51 1018.21 1018.36 1018.54 1018.32 1018.27 1018.68
1033.95 1034.53 1034.97 1034.82 1034.92 1034.88 1034.59 1034.26 1034.08 1033.57 1033.25 1032.74 1032.26 1031.85 1031.39 1030.87 1030.02 1028.46 1027.80 1027.50 1026.97 1026.54 1026.12 1025.46 1024.85 1023.87 1022.65 1021.68 1020.94 1020.35 1020.12 1019.82 1019.70 1019.63 1019.47 1019.22 1019.09 1019.17 1019.30 1019.59 1019.17 1019.05 1019.33
1033.72 1034.21 1034.95 1034.74 1034.81 1034.59 1034.50 1034.18 1033.98 1033.66 1033.39 1033.17 1032.67 1032.19 1031.70 1031.13 1030.33 1029.12 1028.29 1027.82 1027.36 1027.08 1026.69 1026.11 1025.44 1024.30 1023.13 1022.16 1021.49 1020.92 1020.57 1020.11 1020.05 1020.16 1020.13 1019.98 1019.97 1020.16 1020.27 1020.41 1020.12 1019.89 1019.96
1033.26 1034.17 1034.81 1034.68 1034.48 1034.49 1034.48 1034.50 1034.23 1033.98 1033.63 1033.39 1033.05 1032.65 1032.07 1031.29 1030.76 1029.51 1028.79 1028.25 1027.85 1027.42 1027.09 1026.42 1025.70 1024.61 1023.69 1022.90 1022.18 1021.70 1021.17 1020.91 1020.71 1020.75 1020.82 1020.84 1020.72 1020.52 1020.30 1020.26 1020.14 1020.30 1020.19
1033.21 1033.87 1034.29 1034.43 1034.26 1034.35 1034.28 1034.32 1034.29 1034.21 1033.89 1033.61 1033.25 1032.86 1032.33 1031.42 1030.50 1029.49 1028.99 1028.82 1028.40 1027.94 1027.86 1027.22 1026.00 1025.25 1024.48 1023.90 1023.23 1022.51 1022.08 1021.74 1021.33 1021.22 1021.36 1021.29 1021.15 1020.76 1020.54 1020.29 1020.21 1020.40 1020.45
1033.01 1033.56 1033.81 1033.99 1034.13 1034.55 1034.31 1034.19 1034.03 1034.05 1033.54 1033.30 1033.17 1032.75 1032.34 1031.49 1030.46 1029.66 1029.38 1029.34 1028.66 1028.42 1028.58 1027.98 1027.10 1026.48 1025.83 1025.22 1024.63 1023.97 1023.39 1022.60 1021.86 1021.88 1021.68 1021.49 1021.43 1021.28 1021.04 1020.73 1020.69 1020.67 1021.00
1032.80 1033.45 1033.82 1033.79 1034.06 1034.18 1034.56 1034.53 1033.86 1033.47 1033.28 1033.02 1032.73 1032.59 1032.60 1031.86 1030.69 1030.17 1030.15 1030.20 1029.37 1029.43 1029.89 1029.56 1028.84 1028.25 1027.69 1027.09 1026.41 1025.51 1024.69 1023.56 1022.87 1022.57 1022.18 1021.94 1022.01 1021.74 1021.70 1021.29 1021.19 1021.31 1021.48
1031.82 1032.67 1033.32 1033.87 1034.62 1034.70 1034.61 1034.91 1034.96 1034.10 1033.77 1033.61 1033.28 1032.90 1032.53 1032.25 1031.35 1030.89 1030.81 1031.04 1030.63 1030.90 1031.18 1030.89 1030.39 1029.76 1029.29 1028.58 1027.87 1026.97 1026.29 1025.12 1024.04 1023.39 1022.81 1022.56 1022.42 1022.16 1022.06 1021.86 1021.89 1021.88 1022.07
1032.35 1032.64 1033.38 1033.92 1034.16 1034.72 1035.03 1034.97 1035.12 1035.27 1035.05 1034.67 1034.01 1033.38 1033.20 1032.79 1032.14 1031.81 1031.55 1031.87 1031.88 1031.75 1032.19 1032.01 1031.53 1031.00 1030.44 1029.76 1029.01 1028.19 1027.47 1026.18 1025.15 1024.55 1023.84 1023.19 1022.96 1022.61 1022.35 1022.41 1022.52 1022.72 1022.74
1032.41 1033.26 1033.79 1034.41 1034.67 1035.03 1035.27 1035.59 1035.54 1035.66 1035.76 1035.80 1035.01 1034.14 1034.29 1033.44 1032.99 1032.74 1032.51 1033.09 1033.41 1033.25 1032.96 1032.80 1032.48 1032.02 1031.47 1030.82 1029.96 1029.28 1028.64 1027.41 1026.54 1025.61 1024.76 1024.02 1023.60 1023.16 1023.01 1023.09 1023.25 1023.30 1023.34
1032.40 1032.74 1033.54 1034.21 1034.84 1035.31 1035.49 1036.03 1036.37 1036.36 1036.20 1036.28 1036.13 1035.48 1034.83 1034.84 1034.56 1034.23 1034.02 1034.03 1033.86 1033.56 1033.35 1033.13 1032.84 1032.70 1032.41 1031.77 1031.06 1030.49 1029.58 1028.59 1027.67 1026.91 1026.28 1025.61 1024.85 1023.93 1023.77 1023.89 1023.99 1023.80 1023.82
1032.21 1033.09 1033.56 1033.78 1034.48 1035.24 1035.73 1036.02 1036.28 1036.52 1036.38 1036.36 1035.98 1035.47 1035.05 1035.12 1035.19 1035.10 1034.96 1034.85 1034.56 1034.05 1033.58 1033.30 1033.09 1033.13 1033.10 1032.57 1032.05 1031.48 1030.73 1029.87 1029.21 1028.48 1027.58 1027.08 1026.41 1025.56 1024.80 1024.45 1023.95 1024.00 1024.25
1031.54 1032.21 1033.29 1033.75 1033.71 1034.69 1035.06 1035.31 1035.75 1036.05 1035.99 1036.33 1035.53 1035.33 1035.28 1035.27 1035.17 1035.17 1035.15 1035.06 1034.88 1034.37 1033.75 1033.70 1033.14 1032.88 1032.92 1032.82 1032.30 1031.81 1031.36 1030.84 1030.02 1029.18 1028.71 1028.23 1027.39 1026.44 1025.43 1024.55 1024.45 1024.46 1024.80
1029.77 1031.10 1031.90 1033.07 1033.56 1034.02 1034.57 1034.88 1035.28 1035.59 1035.58 1035.35 1035.32 1035.21 1035.17 1035.25 1035.26 1035.16 1035.06 1034.60 1034.62 1034.32 1033.82 1033.54 1033.19 1032.69 1032.19 1032.06 1032.13 1032.07 1031.80 1030.92 1030.62 1030.20 1029.80 1029.22 1028.36 1027.41 1026.45 1025.52 1025.20 1025.20 1025.16
1030.54 1031.27 1031.55 1031.85 1032.97 1033.72 1034.32 1034.50 1034.74 1034.85 1034.89 1034.85 1034.82 1034.80 1034.82 1034.83 1034.99 1034.99 1034.52 1034.16 1033.98 1033.92 1033.71 1033.45 1033.27 1032.79 1032.24 1031.83 1031.41 1031.24 1031.23 1030.85 1030.50 1030.31 1030.31 1029.90 1028.96 1027.95 1027.06 1026.25 1025.69 1025.24 1025.13
1028.89 1030.04 1031.25 1031.51 1032.27 1032.93 1033.75 1033.92 1034.05 1034.20 1034.27 1034.23 1034.20 1034.27 1034.25 1034.35 1034.47 1034.54 1034.14 1034.02 1033.79 1033.75 1033.25 1032.94 1032.64 1032.54 1032.18 1031.63 1031.28 1030.83 1030.43 1030.43 1030.22 1029.79 1029.63 1029.39 1029.19 1028.48 1027.63 1026.94 1026.31 1025.53 1025.42
1028.84 1029.75 1030.48 1031.06 1031.78 1032.06 1032.78 1033.26 1033.38 1033.40 1033.49 1033.46 1033.51 1033.60 1033.71 1033.77 1033.76 1033.74 1033.72 1033.60 1033.35 1033.18 1032.86 1032.70 1032.39 1031.97 1031.74 1031.49 1031.02 1030.52 1030.12 1029.65 1029.16 1029.17 1029.45 1029.66 1029.30 1028.49 1028.01 1027.63 1026.93 1026.09 1025.83
Wind_Speed
5 6 7 7 8 8 8 10 10 11 12 11 11 12 12 12 12 11 12 12 13 12 12 12 12 12 8 8 7 6 3 1 2 1 2 2 2 5 3 4 3 3 3
5 6 7 8 8 9 10 11 11 11 11 12 11 11 11 11 11 11 12 13 13 13 13 13 13 11 13 10 7 6 3 2 1 1 0 1 3 3 3 4 3 3 3
5 7 7 8 9 9 9 11 11 10 10 11 11 11 11 11 10 13 13 13 12 11 12 12 12 13 13 11 9 6 4 3 2 1 2 1 1 1 3 2 2 1 1
5 7 6 7 8 8 7 8 8 8 8 10 10 9 10 10 10 11 12 12 13 11 11 12 12 13 14 14 10 8 5 3 1 1 1 1 2 2 2 2 2 0 1
5 6 3 5 5 5 6 6 7 7 7 7 8 9 10 8 9 12 12 11 12 13 12 11 11 14 21 19 10 9 7 4 2 1 1 1 1 2 1 1 2 2 2
4 4 3 4 5 5 6 7 6 6 6 6 7 8 9 9 18 19 16 11 12 11 12 12 12 15 18 23 21 16 11 7 6 2 2 2 2 2 1 0 2 2 2
5 3 3 4 4 5 5 6 6 6 6 6 6 8 8 9 18 19 19 10 10 10 11 11 12 11 15 15 16 15 10 15 13 4 4 4 3 3 1 1 1 2 2
5 4 2 3 4 5 5 6 6 4 4 6 6 7 6 8 19 19 19 9 9 11 11 11 13 15 17 17 12 10 7 7 8 6 6 5 3 4 3 1 2 4 3
5 4 1 0 3 3 4 6 4 4 5 4 6 7 8 9 20 20 15 9 10 10 11 11 12 14 24 24 12 11 6 7 8 13 13 14 15 14 9 2 2 1 2
6 5 4 2 0 2 3 5 4 3 5 6 8 8 8 10 19 20 17 8 10 9 9 10 17 20 24 22 11 9 7 6 5 5 5 7 9 11 15 7 3 3 2
6 5 3 2 1 2 3 2 3 4 5 5 6 7 7 9 11 21 20 8 8 8 8 9 9 25 23 21 18 8 7 4 5 4 4 5 6 7 6 6 7 4 1
6 6 2 1 0 1 2 3 4 5 6 6 6 7 7 8 15 18 21 19 16 8 9 8 10 23 20 19 13 18 15 9 4 4 4 5 4 4 4 4 5 6 5
7 5 2 1 2 1 3 3 3 4 4 5 6 6 7 8 7 16 19 20 17 9 8 15 21 18 17 12 18 18 11 5 5 5 4 3 3 2 1 1 2 3 7
7 6 4 3 2 1 2 2 2 2 2 4 5 5 6 7 7 8 8 9 13 9 12 8 12 12 13 12 9 10 7 7 6 4 2 2 2 3 4 2 2 1 6
7 5 5 4 3 1 1 2 1 2 2 0 3 2 5 7 9 18 18 11 10 13 9 4 6 7 9 9 9 9 8 7 8 6 4 4 3 2 3 4 3 4 4
8 5 3 3 2 3 1 2 5 5 8 8 10 8 2 13 19 21 22 21 20 20 5 5 7 7 8 8 8 9 8 9 8 7 5 4 3 3 3 3 4 4 4
9 7 4 3 1 2 2 2 3 5 7 8 12 12 13 13 17 19 20 19 20 15 4 6 6 7 7 7 7 7 9 8 8 7 6 6 5 2 3 4 3 3 4
5 7 5 4 4 3 2 2 2 1 3 4 8 11 13 14 14 16 18 12 7 8 3 5 6 7 7 6 7 7 8 8 8 7 6 6 6 5 3 3 4 3 3
6 4 4 3 2 3 2 1 0 0 1 3 4 6 6 13 12 13 14 3 2 4 4 4 5 5 6 6 7 7 8 8 8 8 8 8 6 5 4 3 3 4 3
4 7 5 4 2 2 2 2 1 2 1 2 2 3 4 4 4 4 3 3 3 3 3 4 4 3 4 5 6 6 7 7 8 8 8 8 8 6 6 4 2 1 3
6 4 6 4 4 3 3 4 3 3 2 3 3 3 10 3 2 2 2 4 4 4 4 4 4 3 2 3 3 5 6 6 7 7 7 7 8 8 4 2 3 2 3
6 6 4 4 4 3 4 4 4 3 3 3 3 3 10 2 2 2 3 3 4 4 3 2 4 3 2 2 3 3 3 4 6 7 7 8 8 8 8 4 3 3 2
8 7 6 4 4 4 3 3 3 3 4 3 3 3 2 2 3 3 4 3 3 3 4 3 4 5 4 3 2 2 2 4 3 5 6 7 7 7 8 7 3 2 2
6 6 7 5 4 4 4 5 4 5 4 4 3 3 4 3 3 5 4 4 2 3 3 3 3 5 5 4 4 2 2 4 3 3 4 4 6 8 8 8 5 2 2
8 7 6 6 5 5 4 4 5 5 5 4 4 3 4 3 3 4 4 3 3 3 4 4 2 4 7 9 7 8 6 4 4 5 3 4 4 8 7 6 7 3 2
8 7 7 5 4 5 5 5 5 5 5 4 4 4 4 4 4 3 3 4 3 3 5 3 4 8 8 5 8 9 7 8 6 5 3 1 3 5 6 7 10 4 1
Wind_Direction
41 39 32 16 6 4 1 353 348 338 336 336 339 339 341 342 344 350 353 351 348 352 351 351 347 348 347 341 334 345 340 358 230 109 63 358 91 121 103 91 104 103 80
51 47 29 18 10 7 1 355 348 343 339 336 341 341 340 341 337 348 357 353 348 351 352 348 349 348 352 342 335 337 323 332 329 171 55 36 76 49 110 110 95 75 76
52 49 33 17 10 5 355 352 347 338 339 344 347 349 340 335 334 1 1 351 348 348 353 351 347 350 349 346 338 330 341 338 34 170 190 153 101 116 96 96 100 127 133
73 60 34 16 9 357 345 338 330 326 340 343 344 341 338 327 350 350 355 354 354 350 352 358 355 354 348 350 345 338 344 330 332 235 111 98 88 73 85 116 122 151 113
86 70 19 6 2 340 339 332 322 325 339 329 344 349 346 342 354 357 358 354 355 359 358 1 356 354 352 359 354 347 344 339 346 336 73 80 99 110 116 121 119 117 67
99 80 3 4 3 348 335 332 323 328 336 340 348 351 356 356 356 360 6 355 0 357 352 1 359 0 351 358 352 2 12 2 6 2 25 47 58 82 76 101 114 143 100
105 71 27 11 357 341 335 337 326 340 339 335 344 353 351 345 0 3 11 351 358 352 350 1 357 356 350 356 350 353 3 20 33 23 38 26 32 26 94 75 79 70 82
109 91 32 8 349 344 345 337 325 321 336 346 339 344 346 350 360 7 14 357 356 358 351 7 355 350 350 355 347 350 359 12 21 26 39 35 40 31 31 80 93 94 110
127 127 204 24 344 343 355 336 313 336 344 339 357 359 4 355 356 10 17 1 355 358 351 4 354 348 349 358 350 352 18 19 18 42 52 49 49 45 28 33 78 150 89
153 169 183 210 75 338 312 321 299 325 1 5 17 11 2 0 350 9 10 358 349 352 353 349 351 352 351 355 351 347 4 9 13 21 32 36 38 40 36 24 353 70 96
153 152 167 204 236 272 313 318 318 356 358 357 19 9 4 359 343 8 4 4 347 349 348 343 343 345 349 354 360 6 8 356 18 30 33 31 34 40 39 23 30 34 80
146 134 164 135 70 30 8 349 16 15 20 9 20 14 358 352 351 360 5 3 354 350 343 338 337 337 347 358 3 16 17 13 33 40 41 33 30 39 49 43 46 51 39
135 132 148 133 101 21 64 30 31 17 27 17 15 10 353 343 333 350 359 1 353 355 335 339 332 338 349 357 11 19 17 16 38 40 30 20 345 350 36 129 84 85 59
136 146 157 145 103 75 68 59 52 10 356 14 360 6 346 334 334 354 8 5 351 346 358 331 342 358 11 11 358 4 12 11 22 28 2 332 332 5 12 351 27 63 64
138 156 155 142 139 53 62 213 129 291 284 76 285 317 348 344 353 5 11 1 353 5 360 340 4 9 9 11 3 359 359 6 25 12 16 20 14 13 15 354 14 42 70
149 159 166 153 163 138 101 357 1 16 6 12 9 9 318 354 0 9 17 10 10 13 5 6 9 11 12 3 359 355 346 1 12 4 9 20 9 19 14 17 32 44 57
154 155 149 143 162 134 115 78 4 339 357 9 9 6 7 5 4 10 18 18 21 29 23 10 8 8 358 357 354 1 338 338 345 360 359 15 0 1 23 29 31 42 47
145 145 149 159 154 140 146 146 132 35 329 316 350 359 6 0 8 9 14 9 6 17 16 4 3 359 357 353 350 0 335 340 353 357 357 14 12 11 18 29 30 29 37
147 145 144 131 131 144 134 110 145 97 301 294 327 350 347 353 0 17 15 50 347 348 350 353 354 354 353 350 352 351 336 345 348 358 1 357 4 12 15 40 33 15 15
139 153 157 146 148 152 162 176 229 214 266 283 304 286 307 26 17 344 351 339 344 325 329 336 333 333 341 347 355 344 341 352 359 1 358 352 345 358 12 12 9 37 37
158 132 160 151 156 172 192 189 219 200 211 253 257 259 310 104 327 316 313 320 313 316 317 320 321 324 320 331 332 347 347 348 352 352 356 352 342 343 347 351 35 57 62
158 164 174 189 167 185 200 195 204 224 224 229 275 288 319 4 318 291 285 279 282 276 277 274 308 307 280 297 314 329 337 338 342 354 353 341 341 342 342 354 12 24 58
162 167 168 182 181 180 202 203 199 215 234 234 242 275 282 270 275 274 276 268 271 280 282 304 308 312 312 300 222 233 288 305 308 333 334 331 332 339 338 333 345 350 4
162 179 185 177 170 189 206 204 211 222 229 236 232 241 253 246 251 259 264 274 283 280 277 269 276 296 306 305 310 289 258 275 271 283 299 302 319 332 329 336 328 349 51
172 170 188 182 188 197 204 213 214 219 223 223 241 239 251 252 258 255 261 260 268 286 286 294 285 280 299 311 312 312 300 284 265 268 288 300 307 315 326 328 332 338 16
172 184 194 172 194 190 201 209 216 213 222 227 225 230 237 248 247 247 253 262 264 271 284 274 285 304 308 293 299 303 296 303 284 253 205 237 306 323 335 328 330 324 318